[[{"header":{"parameterUnit":"m.s-1","parameterCategory":1,"la1":30.2991,"la2":30.254,"lo1":-89.0895,"lo2":-89.0444,"dy":0.0017,"dx":0.0017,"nx":28,"ny":28,"refTime":"2025-07-16T09:00:00:Z","depth":0,"parameterNumber":2,"parameterNumberName":"U-component_of_WINDS"},"data":[0,0,0,0,0,0,0,0,0,0,0,0,0,0,0,0,0,0,0,0,0,0,0,0,0,0,0,0,0,0,0,0,0,0,0,0,0,0,0,0,0,0,0,0,0,0,0,0,0,0,0,0,0,0,0,0,0,0,-4.8258,-4.826,0,-4.8374,-4.8375,-4.8376,-4.8254,-4.8249,-4.8245,-4.824,-4.8352,-4.836,-4.8367,0,0,0,0,0,0,0,0,0,0,0,0,0,-4.7925,-4.7931,-4.8258,-4.826,-4.8261,-4.8374,-4.8375,-4.8377,-4.8255,-4.8249,-4.8243,-4.8238,-4.835,-4.8359,-4.8367,0,0,0,0,0,0,0,0,0,0,0,0,0,-4.8058,-4.7934,-4.8258,-4.8214,-4.8211,-4.8373,-4.8375,-4.8377,-4.8256,-4.8249,-4.8242,-4.8235,-4.8347,-4.8358,-4.8369,-4.8578,0,0,-4.8402,-4.8407,0,0,0,0,0,0,0,0,-4.805,-4.807,-4.8219,-4.8217,-4.8215,-4.8292,-4.8298,-4.8444,-4.8258,-4.8239,-4.824,-4.8232,-4.8338,-4.8349,-4.8386,-4.8583,-4.8588,-4.8403,-4.841,-4.8415,-4.8418,0,0,0,0,0,0,0,-4.8041,-4.8064,-4.8304,-4.8221,-4.8219,-4.8186,-4.8197,-4.8326,-4.8326,-4.824,-4.8231,-4.8247,-4.8335,-4.8376,-4.8388,-4.859,-4.8403,-4.8413,-4.842,-4.8424,-4.8961,-4.8968,0,0,0,0,0,0,-4.8038,-4.8057,-4.83,-4.8307,-4.8114,-4.8198,-4.821,-4.8274,-4.8324,-4.8325,-4.8253,-4.8241,-4.836,-4.8375,-4.8391,-4.8637,-4.8415,-4.8425,-4.8431,-4.8953,-4.8962,-4.8971,0,0,0,0,0,0,-4.8031,-4.8061,-4.8295,-4.818,-4.8208,-4.8211,-4.8284,-4.828,-4.8321,-4.8334,-4.8333,-4.8295,-4.8355,-4.8376,-4.8532,-4.8639,-4.843,-4.844,-4.8944,-4.8956,-4.8966,-4.9132,0,0,0,0,0,0,-4.8022,-4.8059,-4.814,-4.8183,-4.8214,-4.8437,-4.8291,-4.8288,-4.8341,-4.8326,-4.8373,-4.8374,-4.8351,-4.8516,-4.8543,-4.8651,-4.8449,-4.8934,-4.8949,-4.8963,-4.9117,-4.9148,-4.9174,0,0,0,0,0,-4.8011,-4.8182,-4.8145,-4.8175,-4.8316,-4.8444,-4.8461,-4.8433,-4.835,-4.843,-4.8439,-4.8373,-4.8624,-4.8533,-4.8562,-4.8675,-4.8927,-4.8945,-4.8962,-4.9104,-4.9142,-4.9174,0,0,0,0,0,0,-4.815,-4.8187,-4.8146,-4.8337,-4.8388,-4.8423,-4.8523,-4.8474,-4.8548,-4.8531,-4.8491,-4.8503,-4.8668,-4.8687,-4.8586,-4.8878,-4.8762,-4.8786,-4.886,-4.8896,-4.8924,-4.8915,-4.8458,0,0,0,0,0,-4.8203,-4.8306,-4.8331,-4.8496,-4.8525,-4.852,-4.8574,-4.8548,-4.8599,-4.8619,-4.8639,-4.8689,-4.8778,-4.8838,-4.8922,-4.912,-4.9126,-4.9211,-4.924,-4.9263,-4.9284,-4.9386,-4.9424,-4.9027,-4.9027,-4.9026,0,0,-4.8313,-4.8346,-4.8413,-4.8525,-4.8562,-4.8666,-4.8539,-4.8655,-4.8731,-4.8636,-4.8785,-4.8802,-4.8854,-4.9032,-4.9111,-4.9053,-4.9395,-4.9285,-4.9304,-4.9311,-4.9408,-4.9445,-4.9479,-4.9039,-4.9036,-4.9035,0,0,-4.8566,-4.8603,-4.8744,-4.8784,-4.8842,-4.8837,-4.8871,-4.8914,-4.8921,-4.907,-4.9001,-4.9089,-4.9246,-4.9285,-4.9326,-4.9594,-4.9535,-4.9622,-4.9771,-4.9871,-4.9903,-4.993,-5.0023,-5.0057,-4.9643,-4.9643,-4.9644,0,-4.8695,-4.8852,-4.8822,-4.8944,-4.8994,-4.8915,-4.9055,-4.9094,-4.9176,-4.9211,-4.9145,-4.9338,-4.9368,-4.9552,-4.9618,-4.9655,-4.9689,-4.9616,-4.9901,-4.9928,-4.9953,-5.0041,-5.0077,-4.9653,-4.9652,-4.9651,-4.965,0,-4.9006,-4.9116,-4.9223,-4.9305,-4.9367,-4.9498,-4.9485,-4.9551,-4.9519,-4.9521,-4.9672,-4.9706,-4.9794,-4.9836,-4.9806,-5.0016,-4.9977,-4.9908,-4.9789,-5.0002,-5.0083,-5.0117,-4.9668,-4.9664,-4.9661,-4.9659,0,0,-4.935,-4.9414,-4.9453,-4.9489,-4.9547,-4.963,-4.9755,-4.9843,-4.9899,-4.9958,-5.006,-5.0194,-5.0129,-5.0175,-5.0149,-5.0238,-5.0445,-5.0156,-5.0157,-5.0206,-5.0674,-5.0725,-5.0764,-5.0407,-5.0413,-5.0418,-5.0669,0,-4.9602,-4.9823,-4.9799,-5.0008,-5.0107,-5.0033,-5.0142,-5.0188,-5.0193,-5.0275,-5.0279,-5.0374,-5.0283,-5.031,-5.0395,-5.0402,-5.0537,-5.0384,-5.0498,-5.0502,-5.0485,-5.0808,-5.0862,-5.1097,-5.0701,-5.0706,-5.071,0,-4.9927,-4.9999,-5.0219,-5.026,-5.03,-5.0399,-5.0476,-5.0558,-5.0607,-5.0604,-5.0656,-5.0614,-5.0736,-5.0617,-5.0784,-5.068,-5.0725,-5.0735,-5.0743,-5.0751,-5.0618,-5.0821,-5.1171,-5.1205,-5.0761,-5.0757,-5.0753,0,-5.0152,-5.0304,-5.0454,-5.0487,-5.054,-5.0611,-5.0635,-5.0678,-5.0732,-5.0798,-5.0832,-5.0912,-5.0955,-5.1017,-5.0996,-5.0912,-5.1166,-5.1046,-5.1164,-5.1165,-5.1219,-5.1215,-5.1578,-5.1253,-5.1253,-5.1252,-5.1251,0,-5.0436,-5.0572,-5.0556,-5.0648,-5.0798,-5.0768,-5.0916,-5.0931,-5.0969,-5.1061,-5.1001,-5.1088,-5.1056,-5.114,-5.1124,-5.1263,-5.1284,-5.1282,-5.1276,-5.1286,-5.1286,-5.1313,-5.1295,-5.1261,-5.1259,-5.1257,-5.1256,0,-5.0711,-5.0707,-5.0865,-5.0903,-5.0915,-5.1023,-5.1053,-5.1138,-5.1139,-5.1255,-5.1281,-5.1281,-5.1376,-5.1362,-5.1468,-5.1457,-5.1629,-5.1604,-5.1613,-5.1606,-5.1724,-5.1712,-5.2115,-5.2165,-5.1811,-5.1814,-5.1817,0,-5.0891,-5.0995,-5.1044,-5.1102,-5.1132,-5.1227,-5.1281,-5.1255,-5.1314,-5.1378,-5.1454,-5.1545,-5.1616,-5.1771,-5.1779,-5.1859,-5.1833,-5.1969,-5.1845,-5.1851,-5.1831,-5.1824,-5.1833,-5.1993,-5.1997,-5.2,-5.2003,0,-5.121,-5.1203,-5.1286,-5.1368,-5.1435,-5.1498,-5.1554,-5.1605,-5.1583,-5.1652,-5.175,-5.1805,-5.1914,-5.2003,-5.2078,-5.2099,-5.2047,-5.2043,-5.2073,-5.2083,-5.2083,-5.2082,-5.1677,-5.2033,-5.203,-5.2027,-5.2026,-5.2025,-5.1441,-5.1529,-5.1577,-5.167,-5.1711,-5.1765,-5.1846,-5.1857,-5.1939,-5.2027,-5.2006,-5.2116,-5.216,-5.2255,-5.2285,-5.2369,-5.2318,-5.2364,-5.2375,-5.2386,-5.2398,-5.2073,-5.2382,-5.2382,-5.2381,-5.238,-5.2379,0,-5.1754,-5.1782,-5.1869,-5.195,-5.2023,-5.1971,-5.203,-5.2093,-5.2192,-5.2239,-5.231,-5.2421,-5.2507,-5.2522,-5.2603,-5.2667,-5.2644,-5.2688,-5.2682,-5.2687,-5.2441,-5.2404,-5.2705,-5.2705,-5.2705,-5.2705,-5.2705,-5.2705,-5.1926,-5.207,-5.2069,-5.2232,-5.2257,-5.2366,-5.2404,-5.2452,-5.2489,-5.2617,-5.2689,-5.2699,-5.2732,-5.2815,-5.289,-5.2892,-5.2923,-5.2976,-5.2968,-5.2737,-5.2705,-5.2674,-5.2639,-5.2984,-5.2985,-5.3207,-5.3209,-5.3211]},{"header":{"parameterUnit":"m.s-1","parameterCategory":1,"la1":30.2991,"la2":30.254,"lo1":-89.0895,"lo2":-89.0444,"dy":0.0017,"dx":0.0017,"nx":28,"ny":28,"refTime":"2025-07-16T09:00:00:Z","depth":0,"parameterNumber":3,"parameterNumberName":"V-component_of_WINDS"},"data":[0,0,0,0,0,0,0,0,0,0,0,0,0,0,0,0,0,0,0,0,0,0,0,0,0,0,0,0,0,0,0,0,0,0,0,0,0,0,0,0,0,0,0,0,0,0,0,0,0,0,0,0,0,0,0,0,0,0,-1.033,-1.0326,0,-0.9987,-0.9983,-0.9979,-0.9873,-0.9875,-0.9877,-0.9878,-0.9516,-0.9505,-0.9494,0,0,0,0,0,0,0,0,0,0,0,0,0,-1.0878,-1.0868,-1.0331,-1.0326,-1.0322,-0.9987,-0.9983,-0.9978,-0.9873,-0.9875,-0.9877,-0.9879,-0.9519,-0.9506,-0.9493,0,0,0,0,0,0,0,0,0,0,0,0,0,-1.0597,-1.0865,-1.0331,-1.023,-1.0217,-0.9988,-0.9982,-0.9977,-0.9873,-0.9875,-0.9878,-0.988,-0.9524,-0.9507,-0.9491,-0.9335,0,0,-0.9439,-0.9432,0,0,0,0,0,0,0,0,-1.0614,-1.0577,-1.0249,-1.0236,-1.0222,-0.9976,-1.0042,-0.9761,-0.9872,-1.0003,-0.9878,-0.9881,-0.9666,-0.9637,-0.9567,-0.9318,-0.9302,-0.9438,-0.9427,-0.942,-0.9415,0,0,0,0,0,0,0,-1.0633,-1.0592,-1.0194,-1.0244,-1.0227,-1.0195,-1.0158,-0.9989,-0.9824,-0.9992,-0.9983,-0.9945,-0.9659,-0.9584,-0.9558,-0.9297,-0.9438,-0.9423,-0.9413,-0.9406,-0.889,-0.8886,0,0,0,0,0,0,-1.0672,-1.0609,-1.0205,-1.0184,-1.0428,-1.0183,-1.0142,-1.0052,-0.9826,-0.9794,-0.9943,-0.9941,-0.9611,-0.9578,-0.9545,-0.9339,-0.942,-0.9404,-0.9395,-0.8893,-0.8889,-0.8885,0,0,0,0,0,0,-1.0684,-1.0637,-1.0219,-1.0393,-1.0338,-1.0171,-1.0071,-1.0044,-0.9969,-0.9789,-0.9757,-0.9897,-0.9612,-0.9568,-0.9386,-0.9326,-0.9397,-0.9381,-0.8897,-0.8892,-0.8887,-0.8934,0,0,0,0,0,0,-1.07,-1.0642,-1.0586,-1.0393,-1.0329,-1.0072,-1.0067,-1.0035,-0.9941,-0.9935,-0.9738,-0.9707,-0.9611,-0.9412,-0.9369,-0.9304,-0.9368,-0.8902,-0.8895,-0.8889,-0.8937,-0.893,-0.8925,0,0,0,0,0,-1.072,-1.0613,-1.0584,-1.0536,-1.0257,-1.0069,-1.0031,-0.9926,-0.9937,-0.9875,-0.9758,-0.9713,-0.934,-0.9394,-0.9345,-0.9274,-0.8905,-0.8897,-0.8889,-0.8939,-0.8932,-0.8925,0,0,0,0,0,0,-1.0802,-1.0587,-1.0552,-1.0381,-1.0244,-1.0052,-0.9972,-0.9923,-0.9778,-0.9778,-0.9649,-0.9605,-0.9429,-0.9333,-0.9398,-0.9105,-0.912,-0.9102,-0.9175,-0.9166,-0.916,-0.9186,-0.9354,0,0,0,0,0,-1.0801,-1.0671,-1.0488,-1.0354,-1.0287,-1.0141,-1.0056,-0.9985,-0.9837,-0.9778,-0.9647,-0.9501,-0.9349,-0.9253,-0.9104,-0.8922,-0.8872,-0.8848,-0.8842,-0.8838,-0.8823,-0.8709,-0.8693,-0.8858,-0.8858,-0.8859,0,0,-1.0796,-1.0662,-1.0588,-1.0366,-1.0253,-1.0114,-1.0093,-0.9951,-0.9844,-0.9755,-0.9574,-0.9472,-0.9299,-0.9114,-0.9026,-0.9028,-0.8766,-0.8828,-0.8826,-0.8813,-0.8699,-0.8683,-0.8669,-0.8853,-0.8854,-0.8855,0,0,-1.0716,-1.0605,-1.0477,-1.0361,-1.0189,-1.009,-1.006,-0.9872,-0.9801,-0.9618,-0.9545,-0.9413,-0.9158,-0.9035,-0.8939,-0.8801,-0.875,-0.8755,-0.8725,-0.8615,-0.8602,-0.8589,-0.8532,-0.8514,-0.8741,-0.8741,-0.8741,0,-1.0731,-1.0525,-1.0416,-1.0274,-1.0175,-1.0087,-0.9951,-0.9843,-0.963,-0.956,-0.9566,-0.9237,-0.9115,-0.8895,-0.886,-0.8788,-0.8741,-0.8777,-0.8614,-0.86,-0.8586,-0.853,-0.851,-0.8743,-0.8742,-0.8742,-0.8742,0,-1.0547,-1.0404,-1.032,-1.0116,-1.0007,-0.987,-0.9733,-0.9634,-0.957,-0.9469,-0.9276,-0.9126,-0.8941,-0.8884,-0.8821,-0.865,-0.8656,-0.864,-0.8652,-0.8574,-0.8518,-0.8497,-0.8744,-0.8744,-0.8744,-0.8743,0,0,-1.0515,-1.0246,-1.0217,-1.0119,-0.9917,-0.9801,-0.9654,-0.9474,-0.9388,-0.9241,-0.9109,-0.889,-0.887,-0.8761,-0.8682,-0.8586,-0.8475,-0.8579,-0.8573,-0.8559,-0.8267,-0.8278,-0.8255,-0.8441,-0.8437,-0.8433,-0.8279,0,-1.0404,-1.0144,-1.0037,-0.9822,-0.9683,-0.9593,-0.9463,-0.9321,-0.922,-0.9081,-0.8968,-0.8812,-0.8802,-0.8734,-0.8635,-0.851,-0.8413,-0.852,-0.8309,-0.8303,-0.8352,-0.8228,-0.8241,-0.8103,-0.8257,-0.8254,-0.8251,0,-1.0244,-1.0094,-0.9867,-0.9672,-0.9609,-0.9496,-0.9316,-0.9188,-0.9021,-0.8953,-0.8827,-0.8751,-0.8584,-0.8607,-0.837,-0.8445,-0.8351,-0.8275,-0.8267,-0.824,-0.8271,-0.8192,-0.8058,-0.8035,-0.8217,-0.822,-0.8222,0,-1.0234,-0.9976,-0.9804,-0.9723,-0.9495,-0.9415,-0.9314,-0.915,-0.9045,-0.8886,-0.8815,-0.8639,-0.8541,-0.8402,-0.8277,-0.8307,-0.8048,-0.8064,-0.798,-0.7983,-0.7929,-0.7933,-0.7772,-0.7876,-0.7877,-0.7877,-0.7878,0,-1.0121,-0.9984,-0.9796,-0.969,-0.9529,-0.9403,-0.9245,-0.9138,-0.899,-0.8855,-0.8765,-0.864,-0.8484,-0.8335,-0.8236,-0.8049,-0.8007,-0.7942,-0.7916,-0.7947,-0.7955,-0.7882,-0.7887,-0.7871,-0.7873,-0.7874,-0.7875,0,-1.0085,-0.9955,-0.976,-0.9556,-0.9501,-0.9391,-0.9213,-0.9102,-0.8994,-0.8823,-0.8776,-0.8604,-0.8424,-0.8285,-0.8051,-0.7983,-0.7783,-0.7758,-0.7841,-0.7827,-0.7748,-0.7755,-0.7532,-0.7492,-0.7629,-0.7628,-0.7627,0,-1.002,-0.9912,-0.9695,-0.9599,-0.95,-0.9347,-0.9238,-0.9106,-0.8995,-0.879,-0.87,-0.8514,-0.8358,-0.8072,-0.7922,-0.7739,-0.7706,-0.7639,-0.7678,-0.7709,-0.7696,-0.7703,-0.7687,-0.7634,-0.7633,-0.7633,-0.7632,0,-0.9916,-0.9854,-0.9704,-0.9527,-0.9399,-0.9253,-0.9105,-0.903,-0.8868,-0.8747,-0.8562,-0.844,-0.8198,-0.801,-0.781,-0.7699,-0.7634,-0.7621,-0.759,-0.762,-0.7669,-0.7634,-0.7822,-0.7627,-0.7627,-0.7628,-0.7628,-0.7628,-0.9859,-0.9755,-0.9584,-0.9415,-0.9288,-0.9149,-0.9032,-0.8907,-0.8751,-0.8545,-0.8474,-0.8281,-0.8103,-0.7828,-0.7714,-0.7556,-0.7553,-0.7512,-0.75,-0.7491,-0.749,-0.7698,-0.7519,-0.7519,-0.7519,-0.7519,-0.7519,0,-0.9745,-0.9629,-0.9475,-0.9268,-0.9133,-0.9087,-0.8916,-0.8804,-0.8636,-0.8478,-0.8324,-0.8105,-0.7919,-0.7753,-0.7557,-0.7461,-0.7426,-0.7414,-0.7418,-0.7391,-0.7507,-0.7549,-0.7445,-0.7445,-0.7445,-0.7445,-0.7445,-0.7445,-0.967,-0.9488,-0.9404,-0.9154,-0.9036,-0.8848,-0.8753,-0.862,-0.8492,-0.8252,-0.8098,-0.7991,-0.7825,-0.7615,-0.7439,-0.7394,-0.7323,-0.7317,-0.7264,-0.7375,-0.7384,-0.7393,-0.7432,-0.7305,-0.7304,-0.716,-0.7159,-0.7158]}]]